This demonstration page uses our WeatherBlox Daily Observations layout. Learn more.

Left ArrowRight Arrow

Hourly Observations for April 18, 2016

Temp ( °F °C ) Dew Point ( °F °C ) Humidity (%) Winds ( mph kmh ) Pressure ( in mb ) Visibility ( mi km ) Precip ( " mm )
12:51 am 00:51 Clear 52 11.1 28 -2.2 40 40 NNW 9 15 30.00 1016 10 16 0.00 0.00
1:51 am 01:51 Clear 50 10 28 -2.2 43 43 NNE 8 13 29.99 1016 10 16 0.00 0.00
2:51 am 02:51 Clear 52 11.1 28 -2.2 40 40 SE 3 6 29.99 1016 10 16 0.00 0.00
3:51 am 03:51 Clear 47 8.3 29 -1.7 50 50 WSW 7 11 30.01 1016 10 16 0.00 0.00
4:51 am 04:51 Clear 48 8.9 29 -1.7 48 48 N 5 7 30.01 1016 10 16 0.00 0.00
5:51 am 05:51 Sunny 44 6.7 28 -2.2 53 53 SE 6 9 30.02 1017 10 16 0.00 0.00
6:51 am 06:51 Sunny 51 10.6 30 -1.1 44 44 Calm 30.03 1017 10 16 0.00 0.00
7:51 am 07:51 Sunny 57 13.9 30 -1.1 36 36 VRB 5 7 30.04 1017 10 16 0.00 0.00
8:51 am 08:51 Sunny 60 15.6 30 -1.1 32 32 VRB 3 6 30.03 1017 10 16 0.00 0.00
9:51 am 09:51 Sunny 65 18.3 29 -1.7 26 26 VRB 6 9 30.01 1016 10 16 0.00 0.00
10:51 am 10:51 Sunny 71 21.7 27 -2.8 19 19 VRB 6 9 30.00 1016 10 16 0.00 0.00
11:51 am 11:51 Sunny 73 22.8 23 -5 15 15 W 14 22 29.97 1015 10 16 0.00 0.00
12:51 pm 12:51 Sunny 76 24.4 21 -6.1 13 13 WNW 16 26 29.95 1014 10 16 0.00 0.00
1:51 pm 13:51 Sunny 77 25 19 -7.2 11 11 NW 20 31 29.94 1014 10 16 0.00 0.00
2:51 pm 14:51 Sunny 78 25.6 18 -7.8 10 10 NW 15 24 29.91 1013 10 16 0.00 0.00
3:51 pm 15:51 Sunny 78 25.6 19 -7.2 11 11 NW 18 30 29.91 1013 10 16 0.00 0.00
4:51 pm 16:51 Sunny 77 25 17 -8.3 10 10 WNW 15 24 29.91 1013 10 16 0.00 0.00
5:51 pm 17:51 Sunny 75 23.9 15 -9.4 10 10 NW 16 26 29.92 1013 10 16 0.00 0.00
6:51 pm 18:51 Sunny 72 22.2 17 -8.3 12 12 NW 10 17 29.92 1013 10 16 0.00 0.00
7:51 pm 19:51 Clear 65 18.3 19 -7.2 17 17 NW 8 13 29.93 1014 10 16 0.00 0.00
8:51 pm 20:51 Clear 64 17.8 21 -6.1 19 19 NW 8 13 29.96 1015 10 16 0.00 0.00
9:51 pm 21:51 Clear 64 17.8 22 -5.6 20 20 NNW 10 17 29.96 1015 10 16 0.00 0.00
10:51 pm 22:51 Clear 61 16.1 22 -5.6 22 22 NW 7 11 29.96 1015 10 16 0.00 0.00
11:51 pm 23:51 Clear 61 16.1 22 -5.6 22 22 W 5 7 29.97 1015 10 16 0.00 0.00

Powered by AerisWeather